Weather History for Sand Point, AK

Change the Weather History Date:

Friday, March 8, 2013

  Actual Average Record
Temperature  
Mean Temperature 34 °F -  
Max Temperature 37 °F 34 °F 42 °F (1987)
Min Temperature 28 °F 28 °F 3 °F (2007)
Degree Days  
Heating Degree Days 32    
Moisture  
Dew Point 29 °F    
Average Humidity 88    
Maximum Humidity 100    
Minimum Humidity 75    
Precipitation  
Precipitation 0.00 in - - ()
Sea Level Pressure  
Sea Level Pressure 29.32 in    
Wind  
Wind Speed 15 mph (West)    
Max Wind Speed 29 mph    
Max Gust Speed 37 mph    
Visibility 6 miles    
Events      
Averages and records for this station are not official NWS values.
T = Trace of Precipitation, MM = Missing Value Source: NWS Daily Summary

Daily Weather History Graph

Daily Weather History Graph

Search for Another Location

Airport:

Trip Planner

Search our weather history database for the weather conditions in past years. The results will help you decide how hot, cold, wet, or windy it might be!

Date:

Astronomy

Mar. 08, 2013 Rise Set
Actual Time 8:13 AM AKST 7:32 PM AKST
Civil Twilight 7:37 AM AKST 8:09 PM AKST
Nautical Twilight 6:55 AM AKST 8:51 PM AKST
Astronomical Twilight 6:11 AM AKST 9:35 PM AKST
Moon 6:32 AM AKST (3/8) 4:18 PM AKST (3/8)
Length of Visible Light 12h 31m
Length of Day
11h 19m
Waning Crescent, 11% of the Moon is Illuminated
Mar 8
Waning Crescent
Mar 11
New
Mar 19
First Quarter
Mar 27
Full
Apr 2
Last Quarter

Hourly Weather History & Observations

Time (AKST) Temp. Windchill Dew Point Humidity Pressure Visibility Wind Dir Wind Speed Gust Speed Precip Events Conditions
12:16 AM 35.6 °F 27.5 °F 35.6 °F 100% 28.81 in 10.0 mi South 11.5 mph - N/A   Overcast
12:36 AM 35.6 °F 29.2 °F 33.8 °F 93% 28.83 in 10.0 mi SSW 8.1 mph - N/A   Overcast
12:56 AM 37.4 °F 28.5 °F 33.8 °F 87% 28.85 in 10.0 mi SSW 15.0 mph - N/A   Overcast
1:16 AM 35.6 °F 26.6 °F 33.8 °F 93% 28.86 in 10.0 mi South 13.8 mph - N/A   Overcast
1:36 AM 35.6 °F 29.2 °F 33.8 °F 93% 28.88 in 10.0 mi South 8.1 mph - N/A   Overcast
1:56 AM 37.4 °F 30.3 °F 32.0 °F 81% 28.90 in 10.0 mi SSW 10.4 mph - N/A   Overcast
2:16 AM 37.4 °F 29.3 °F 32.0 °F 81% 28.92 in 10.0 mi SSW 12.7 mph - N/A   Overcast
2:36 AM 37.4 °F 30.8 °F 30.2 °F 75% 28.93 in 10.0 mi SW 9.2 mph - N/A   Overcast
2:56 AM 35.6 °F 25.5 °F 30.2 °F 81% 28.94 in 10.0 mi SW 17.3 mph 21.9 mph N/A   Overcast
3:16 AM 35.6 °F 25.5 °F 30.2 °F 81% 28.95 in 10.0 mi SW 17.3 mph 25.3 mph N/A   Overcast
3:36 AM 35.6 °F 24.5 °F 30.2 °F 81% 28.97 in 10.0 mi SW 20.7 mph 25.3 mph N/A   Overcast
3:56 AM 35.6 °F 24.5 °F 30.2 °F 81% 28.98 in 10.0 mi SW 20.7 mph 26.5 mph N/A   Overcast
4:16 AM 35.6 °F 24.8 °F 30.2 °F 81% 29.00 in 10.0 mi WSW 19.6 mph 26.5 mph N/A   Overcast
4:36 AM 35.6 °F 24.8 °F 30.2 °F 81% 29.01 in 10.0 mi WSW 19.6 mph 27.6 mph N/A   Overcast
4:56 AM 35.6 °F 24.8 °F 30.2 °F 81% 29.03 in 10.0 mi WSW 19.6 mph 25.3 mph N/A   Overcast
5:16 AM 35.6 °F 24.5 °F 30.2 °F 81% 29.04 in 10.0 mi WSW 20.7 mph 29.9 mph N/A   Overcast
5:36 AM 35.6 °F 25.5 °F 30.2 °F 81% 29.06 in 10.0 mi WSW 17.3 mph - N/A   Overcast
5:56 AM 35.6 °F 25.5 °F 30.2 °F 81% 29.06 in 10.0 mi SW 17.3 mph 21.9 mph N/A   Overcast
6:16 AM 35.6 °F 25.2 °F 30.2 °F 81% 29.08 in 10.0 mi WSW 18.4 mph 24.2 mph N/A   Overcast
6:36 AM 35.6 °F 27.1 °F 30.2 °F 81% 29.10 in 10.0 mi WSW 12.7 mph 18.4 mph N/A   Overcast
6:56 AM 33.8 °F 27.7 °F 30.2 °F 87% 29.11 in 3.0 mi West 6.9 mph - N/A   Overcast
7:16 AM 33.8 °F 25.8 °F 30.2 °F 87% 29.14 in 3.0 mi WSW 10.4 mph - N/A   Overcast
7:36 AM 32.0 °F 27.5 °F 30.2 °F 93% 29.15 in 1.5 mi West 4.6 mph - N/A   Overcast
7:56 AM 33.8 °F 26.4 °F 30.2 °F 87% 29.16 in 1.8 mi West 9.2 mph - N/A   Overcast
8:16 AM 33.8 °F 24.8 °F 30.2 °F 87% 29.17 in 3.0 mi West 12.7 mph 18.4 mph N/A   Overcast
8:36 AM 33.8 °F 27.7 °F 30.2 °F 87% 29.19 in 3.0 mi West 6.9 mph - N/A   Overcast
8:56 AM 32.0 °F 27.5 °F 30.2 °F 93% 29.22 in 3.0 mi WNW 4.6 mph - N/A   Overcast
9:16 AM 33.8 °F 26.4 °F 30.2 °F 87% 29.23 in 5.0 mi West 9.2 mph 16.1 mph N/A   Mostly Cloudy
9:36 AM 32.0 °F 23.0 °F 30.2 °F 93% 29.25 in 3.0 mi West 11.5 mph - N/A   Overcast
9:56 AM 32.0 °F 23.0 °F 30.2 °F 93% 29.26 in 3.0 mi WNW 11.5 mph 17.3 mph N/A   Overcast
10:36 AM 33.8 °F 25.3 °F 30.2 °F 87% 29.30 in 3.0 mi West 11.5 mph - N/A   Overcast
10:56 AM 32.0 °F 24.2 °F 30.2 °F 93% 29.31 in 3.0 mi West 9.2 mph - N/A   Overcast
11:16 AM 32.0 °F 24.8 °F 30.2 °F 93% 29.32 in 1.5 mi West 8.1 mph - N/A   Overcast
11:36 AM 32.0 °F 24.8 °F 30.2 °F 93% 29.34 in 3.0 mi West 8.1 mph - N/A   Overcast
11:56 AM 32.0 °F 19.5 °F 28.4 °F 87% 29.35 in 9.0 mi NW 21.9 mph 26.5 mph N/A   Overcast
12:16 PM 32.0 °F 19.8 °F 28.4 °F 87% 29.37 in 10.0 mi NW 20.7 mph 27.6 mph N/A   Overcast
12:36 PM 33.8 °F 23.2 °F 28.4 °F 81% 29.38 in 3.0 mi WNW 17.3 mph 26.5 mph N/A   Overcast
12:56 PM 33.8 °F 22.2 °F 30.2 °F 87% 29.40 in 3.0 mi WNW 20.7 mph 27.6 mph N/A   Overcast
1:16 PM 32.0 °F 20.5 °F 30.2 °F 93% 29.42 in 2.5 mi WNW 18.4 mph 23.0 mph N/A   Overcast
1:36 PM 32.0 °F 19.2 °F 28.4 °F 87% 29.43 in 6.0 mi NW 23.0 mph 31.1 mph N/A   Mostly Cloudy
1:56 PM 30.2 °F 16.8 °F 28.4 °F 93% 29.44 in 4.0 mi NW 23.0 mph 29.9 mph N/A   Overcast
2:16 PM 30.2 °F 16.8 °F 28.4 °F 93% 29.45 in 5.0 mi WNW 23.0 mph 31.1 mph N/A   Overcast
2:36 PM 30.2 °F 16.5 °F 28.4 °F 93% 29.47 in 3.0 mi WNW 24.2 mph 34.5 mph N/A   Overcast
2:56 PM 32.0 °F 21.2 °F 28.4 °F 87% 29.50 in 5.0 mi West 16.1 mph 25.3 mph N/A   Overcast
3:16 PM 30.2 °F 19.3 °F 28.4 °F 93% 29.50 in 5.0 mi WNW 15.0 mph 23.0 mph N/A   Overcast
3:36 PM 30.2 °F 17.1 °F 28.4 °F 93% 29.51 in 6.0 mi NW 21.9 mph 32.2 mph N/A   Overcast
3:56 PM 30.2 °F 15.4 °F 28.4 °F 93% 29.53 in 4.0 mi WNW 28.8 mph 36.8 mph N/A   Overcast
4:16 PM 30.2 °F 17.1 °F 28.4 °F 93% 29.55 in 3.0 mi WNW 21.9 mph 29.9 mph N/A   Overcast
4:36 PM 30.2 °F 17.4 °F 28.4 °F 93% 29.56 in 3.0 mi NW 20.7 mph 27.6 mph N/A   Overcast
4:56 PM 30.2 °F 16.2 °F 28.4 °F 93% 29.57 in 1.8 mi NW 25.3 mph 32.2 mph N/A   Overcast
5:16 PM 30.2 °F 17.4 °F 28.4 °F 93% 29.59 in 2.5 mi WNW 20.7 mph 29.9 mph N/A   Overcast
5:56 PM 30.2 °F 16.2 °F 28.4 °F 93% 29.62 in 2.0 mi NW 25.3 mph 32.2 mph N/A   Overcast
6:16 PM 30.2 °F 16.5 °F 28.4 °F 93% 29.64 in 1.5 mi WNW 24.2 mph 34.5 mph N/A   Overcast
6:36 PM 30.2 °F 17.8 °F 28.4 °F 93% 29.65 in 1.5 mi WNW 19.6 mph 26.5 mph N/A   Overcast
6:56 PM 30.2 °F 17.4 °F 28.4 °F 93% 29.68 in 2.0 mi WNW 20.7 mph 27.6 mph N/A   Overcast
7:16 PM 30.2 °F 16.8 °F 28.4 °F 93% 29.69 in 2.0 mi WNW 23.0 mph 28.8 mph N/A   Overcast
7:36 PM 30.2 °F 16.8 °F 28.4 °F 93% 29.71 in 2.0 mi WNW 23.0 mph 32.2 mph N/A   Overcast
8:16 PM 30.2 °F 16.5 °F 28.4 °F 93% 29.74 in 9.0 mi WNW 24.2 mph 29.9 mph N/A   Overcast
8:36 PM 30.2 °F 16.8 °F 26.6 °F 86% 29.76 in 9.0 mi WNW 23.0 mph 31.1 mph N/A   Overcast
8:56 PM 30.2 °F 17.1 °F 26.6 °F 86% 29.77 in 10.0 mi WNW 21.9 mph 32.2 mph N/A   Overcast
9:56 PM 30.2 °F 17.1 °F 24.8 °F 80% 29.82 in 10.0 mi WNW 21.9 mph 31.1 mph N/A   Overcast
10:16 PM 30.2 °F 16.5 °F 24.8 °F 80% 29.84 in 10.0 mi WNW 24.2 mph 32.2 mph N/A   Overcast
10:36 PM 30.2 °F 17.1 °F 24.8 °F 80% 29.85 in 10.0 mi WNW 21.9 mph 26.5 mph N/A   Overcast
11:16 PM 30.2 °F 17.1 °F 24.8 °F 80% 29.87 in 10.0 mi WNW 21.9 mph 28.8 mph N/A   Overcast
11:36 PM 28.4 °F 14.7 °F 23.0 °F 80% 29.89 in 10.0 mi WNW 21.9 mph 28.8 mph N/A   Overcast